Regional Weather Roundup
Issued by NWS

Home | Current Version | Previous Version | Graphics & Text | Print | Product List | Glossary Off
Versions: 1 2 3 4 5 6 7 8 9 10 11 12 13 14 15 16 17 18 19 20 21 22 23 24 25 26 27 28 29 30 31 32 33 34 35 36 37 38 39 40 41 42 43 44 45 46 47 48 49 50

000
ASUS43 KDTX 252310
RWRMI
MICHIGAN HOURLY REGIONAL WEATHER ROUNDUP
NATIONAL WEATHER SERVICE DETROIT/PONTIAC MI
ISSUED BY NATIONAL WEATHER SERVICE GRAND RAPIDS MI
700 PM EDT TUE JUL 25 2017

NOTE: "FAIR" INDICATES FEW OR NO CLOUDS BELOW 12,000 FEET WITH NO
SIGNIFICANT WEATHER AND/OR OBSTRUCTION TO VISIBILITY.

MIZ047>049-052>055-059>063-066>070-074>076-081>083-260000-
SOUTHEAST LOWER MICHIGAN

CITY           SKY/WX    TMP DP  RH WIND       PRES   REMARKS
ADRIAN         SUNNY     77  58  51 SE5       30.22S
ALMA           SUNNY     78  48  35 SE6       30.19F
ANN ARBOR      SUNNY     78  58  49 CALM      30.21R
BAD AXE        SUNNY     74  53  48 CALM      30.21F
DETROIT CITY   MOSUNNY   76  57  51 SE9       30.21S
DETROIT        MOSUNNY   78  55  44 SE6       30.21S
FLINT          MOSUNNY   79  52  38 VRB3      30.21S
GROSSE ILE     MOSUNNY   74  62  67 S8        30.21S
HILLSDALE      CLOUDY    75  52  43 E6        30.21S
HOWELL         MOSUNNY   76  52  44 CALM      30.21F

CITY           SKY/WX    TMP DP  RH WIND       PRES   REMARKS
JACKSON        SUNNY     78  49  35 SW5       30.21S
LANSING        SUNNY     77  53  43 E7        30.21S
MASON          SUNNY     76  54  45 SE3       30.21F
MONROE         MOSUNNY   75  60  58 SE5       30.20S
MT. CLEMENS    PTSUNNY   75  56  51 SE5       30.19S
PONTIAC        PTSUNNY   78  55  44 NW8       30.20S
PORT HOPE        N/A     70  57  63 E6        30.21S
PORT HURON     MOSUNNY   75  54  46 NE3       30.21F
TRI CITIES     SUNNY     78  56  46 VRB6      30.20F
YPSILANTI      MOSUNNY   79  58  48 S8        30.21S
$$
MIZ043>046-050>051-056>058-064>065-071>073-077>080-260000-
SOUTHWEST LOWER MICHIGAN

CITY           SKY/WX    TMP DP  RH WIND       PRES   REMARKS
BATTLE CREEK   CLOUDY    79  53  40 S6        30.20F
BENTON HARBOR  MOSUNNY   74  59  59 CALM      30.16F
BIG RAPIDS     SUNNY     77  54  44 S8        30.16F
COLDWATER      SUNNY     76  55  47 S5        30.20S
HOLLAND        MOSUNNY   76  59  55 SW3       30.17F
GRAND RAPIDS   PTSUNNY   79  53  40 S8        30.17F
KALAMAZOO      CLOUDY    80  51  36 S3        30.18F
MARSHALL       SUNNY     77  53  43 S3        30.20F
MOUNT PLEASANT SUNNY     79  48  33 SE7       30.18F
MUSKEGON       PTSUNNY   76  56  49 S8        30.15F
STURGIS        SUNNY     75  57  53 E8        30.19S
$$
MIZ016>042-260000-
NORTHERN LOWER MICHIGAN

CITY           SKY/WX    TMP DP  RH WIND       PRES   REMARKS
ALPENA         SUNNY     73  56  54 SE10      30.18F
BEAVER ISLAND  SUNNY     74  56  54 S7        30.13F
BELLAIRE       SUNNY     75  60  59 CALM      30.13F
CADILLAC       SUNNY     77  52  41 S6        30.16F
CHARLEVOIX     SUNNY     74  55  51 W5        30.16F
GAYLORD        SUNNY     79  49  34 S8        30.16F
HOUGHTON LAKE  SUNNY     77  55  46 S7        30.18F
MANISTEE       SUNNY     77  62  59 VRB6      30.12F
OSCODA         SUNNY     74  52  46 S8        30.19F
PELLSTON       SUNNY     77  57  50 E10       30.15F
TRAVERSE CITY  PTSUNNY   81  57  43 VRB5      30.11F
LUDINGTON      PTSUNNY   74  62  64 S8        30.13F
$$
MIZ007>008-015-260000-
EASTERN UPPER MICHIGAN

CITY           SKY/WX    TMP DP  RH WIND       PRES   REMARKS
KINROSS        SUNNY     76  57  51 S8        30.15F
MACKINAC ISLAN SUNNY     72  55  56 SE5       30.15F
NEWBERRY       HAZE      70  58  65 S10G16    30.11F VSB 3/4
S. S. MARIE    MOSUNNY   77  56  48 S10       30.13F
$$
MIZ004>006-011>014-085-260000-
CENTRAL UPPER MICHIGAN

CITY           SKY/WX    TMP DP  RH WIND       PRES   REMARKS
MANISTIQUE     MOSUNNY   68  64  85 S8        30.11F
ESCANABA       MOSUNNY   73  62  68 S14       30.08F
MENOMINEE      MOSUNNY   74  63  68 S12       30.10S
SAWYER-GWINN   SUNNY     75  55  50 S18G26    30.06F
$$
MIZ001>003-009>011-084-260000-
WESTERN UPPER MICHIGAN

CITY           SKY/WX    TMP DP  RH WIND       PRES   REMARKS
IRON MOUNTAIN  CLOUDY    73  57  57 S14       30.06F
HOUGHTON       CLOUDY    75  53  46 S5        29.99F
COPPER HARBOR    N/A     71  53  52 SW8       29.98F
IRONWOOD       CLOUDY    72  60  66 S8        29.99F
$$

ABBREVIATIONS USED IN REMARKS
   TC - TEMPERATURE IN CELSIUS
  WCI - WIND CHILL INDEX
   HX - HEAT INDEX
  VSB - VISIBILITY




USA.gov is the U.S. government's official web portal to all federal, state and local government web resources and services.